When you browse on this site, cookies collect data to enhance your experience and personalize the content and advertising you see.
Visit our Privacy Policy to learn more. By continuing to use the site, you agree to this use of cookies and data.
  • In Belgien
  • Länderverzeichnis
  • Für 7 Tage
  • Wassertemperatur
  • Satellitenkarten
  • Wetterkarte
  • Widgets
  • user-avatar
    Anmelden

    Stündliche Wetter Nivelles

    Heute, 19 Dezember, Mittwoch

    Zeit Temperatur Niederschläge Wind Luftdruck Luftfeuchtigkeit
    00:00 +4°C° 0.1 mm 7 m/S 747 mmHg 75%
    01:00 +4°C° 0.6 mm 7 m/S 747 mmHg 79%
    02:00 +4°C° 0.6 mm 7 m/S 747 mmHg 84%
    03:00 +4°C° 0.6 mm 6 m/S 747 mmHg 88%
    04:00 +5°C° 0.1 mm 6 m/S 747 mmHg 89%
    05:00 +6°C° 0.1 mm 5 m/S 747 mmHg 90%
    06:00 +6°C° 0.1 mm 5 m/S 747 mmHg 92%
    07:00 +6°C° 0 mm 5 m/S 748 mmHg 91%
    08:00 +6°C° 0 mm 5 m/S 748 mmHg 91%
    09:00 +6°C° 0 mm 5 m/S 748 mmHg 90%
    10:00 +7°C° 0 mm 6 m/S 748 mmHg 88%
    11:00 +7°C° 0 mm 6 m/S 748 mmHg 86%
    12:00 +7°C° 0 mm 6 m/S 748 mmHg 84%
    13:00 +7°C° 0 mm 6 m/S 748 mmHg 84%
    14:00 +7°C° 0 mm 5 m/S 748 mmHg 85%
    15:00 +7°C° 0 mm 4 m/S 747 mmHg 85%
    16:00 +7°C° 0.1 mm 4 m/S 748 mmHg 85%
    17:00 +6°C° 0.1 mm 4 m/S 748 mmHg 86%
    18:00 +6°C° 0.1 mm 4 m/S 748 mmHg 86%
    19:00 +6°C° 0 mm 4 m/S 748 mmHg 87%
    20:00 +5°C° 0 mm 4 m/S 748 mmHg 89%
    21:00 +5°C° 0 mm 5 m/S 748 mmHg 90%
    22:00 +5°C° 0 mm 5 m/S 748 mmHg 90%
    23:00 +5°C° 0 mm 5 m/S 748 mmHg 91%

    Morgen, 20 Dezember, Donnerstag

    Zeit Temperatur Niederschläge Wind Luftdruck Luftfeuchtigkeit
    00:00 +5°C° 0 mm 5 m/S 748 mmHg 91%
    01:00 +4°C° 0 mm 6 m/S 748 mmHg 91%
    02:00 +3°C° 0 mm 6 m/S 748 mmHg 90%
    03:00 +3°C° 0 mm 6 m/S 748 mmHg 90%
    04:00 +4°C° 0.2 mm 6 m/S 748 mmHg 89%
    05:00 +4°C° 0.2 mm 6 m/S 748 mmHg 88%
    06:00 +4°C° 0.2 mm 6 m/S 748 mmHg 88%
    07:00 +4°C° 0.2 mm 6 m/S 749 mmHg 87%
    08:00 +4°C° 0.2 mm 6 m/S 749 mmHg 86%
    09:00 +4°C° 0.2 mm 6 m/S 749 mmHg 86%
    10:00 +5°C° 0.1 mm 7 m/S 749 mmHg 85%
    11:00 +5°C° 0.1 mm 7 m/S 749 mmHg 83%
    12:00 +5°C° 0.1 mm 7 m/S 750 mmHg 82%
    13:00 +5°C° 0.2 mm 7 m/S 750 mmHg 82%
    14:00 +5°C° 0.2 mm 7 m/S 750 mmHg 82%
    15:00 +5°C° 0.2 mm 7 m/S 750 mmHg 82%
    16:00 +5°C° 0.1 mm 7 m/S 750 mmHg 82%
    17:00 +5°C° 0.1 mm 7 m/S 750 mmHg 82%
    18:00 +5°C° 0.1 mm 7 m/S 750 mmHg 82%
    19:00 +5°C° 0.2 mm 7 m/S 750 mmHg 82%
    20:00 +5°C° 0.2 mm 7 m/S 750 mmHg 82%
    21:00 +5°C° 0.2 mm 7 m/S 750 mmHg 82%
    22:00 +5°C° 0.1 mm 7 m/S 750 mmHg 83%
    23:00 +5°C° 0.1 mm 7 m/S 750 mmHg 84%

    übermorgen, 21 Dezember, Freitag

    Zeit Temperatur Niederschläge Wind Luftdruck Luftfeuchtigkeit
    00:00 +5°C° 0.1 mm 7 m/S 749 mmHg 85%
    01:00 +5°C° 1.7 mm 7 m/S 748 mmHg 86%
    02:00 +6°C° 1.7 mm 8 m/S 747 mmHg 88%
    03:00 +6°C° 1.7 mm 8 m/S 746 mmHg 89%
    04:00 +7°C° 1.3 mm 9 m/S 745 mmHg 88%
    05:00 +8°C° 1.3 mm 9 m/S 744 mmHg 88%
    06:00 +9°C° 1.3 mm 10 m/S 744 mmHg 87%
    07:00 +9°C° 0.8 mm 10 m/S 743 mmHg 87%
    08:00 +11°C° 0.8 mm 10 m/S 743 mmHg 88%
    09:00 +11°C° 0.8 mm 10 m/S 743 mmHg 88%
    10:00 +11°C° 0.6 mm 10 m/S 743 mmHg 85%
    11:00 +12°C° 0.6 mm 10 m/S 744 mmHg 83%
    12:00 +12°C° 0.6 mm 10 m/S 744 mmHg 80%
    13:00 +11°C° 0.1 mm 10 m/S 745 mmHg 78%
    14:00 +10°C° 0.1 mm 9 m/S 745 mmHg 76%
    15:00 +9°C° 0.1 mm 8 m/S 746 mmHg 74%
    16:00 +9°C° 0 mm 8 m/S 746 mmHg 75%
    17:00 +8°C° 0 mm 7 m/S 747 mmHg 77%
    18:00 +8°C° 0 mm 7 m/S 747 mmHg 78%
    19:00 +8°C° 0 mm 7 m/S 748 mmHg 81%
    20:00 +6°C° 0 mm 7 m/S 748 mmHg 83%
    21:00 +7°C° 0 mm 6 m/S 748 mmHg 86%
    22:00 +7°C° 0 mm 6 m/S 748 mmHg 86%
    23:00 +7°C° 0 mm 6 m/S 748 mmHg 86%

    22 Dezember, Samstag

    Zeit Temperatur Niederschläge Wind Luftdruck Luftfeuchtigkeit
    00:00 +7°C° 0 mm 6 m/S 748 mmHg 86%
    01:00 +7°C° 0 mm 6 m/S 747 mmHg 87%
    02:00 +8°C° 0 mm 7 m/S 747 mmHg 88%
    03:00 +8°C° 0 mm 7 m/S 746 mmHg 88%
    04:00 +9°C° 0.4 mm 8 m/S 746 mmHg 86%
    05:00 +8°C° 0.4 mm 9 m/S 746 mmHg 84%
    06:00 +10°C° 0.4 mm 9 m/S 746 mmHg 82%
    07:00 +8°C° 0.1 mm 9 m/S 747 mmHg 82%
    08:00 +9°C° 0.1 mm 8 m/S 748 mmHg 81%
    09:00 +7°C° 0.1 mm 8 m/S 748 mmHg 81%
    10:00 +7°C° 0.1 mm 8 m/S 749 mmHg 79%
    11:00 +9°C° 0.1 mm 8 m/S 749 mmHg 77%
    12:00 +9°C° 0.1 mm 8 m/S 750 mmHg 75%
    13:00 +9°C° 0.1 mm 7 m/S 750 mmHg 75%
    14:00 +8°C° 0.1 mm 6 m/S 751 mmHg 75%
    15:00 +8°C° 0.1 mm 5 m/S 751 mmHg 75%
    16:00 +8°C° 0.1 mm 5 m/S 752 mmHg 77%
    17:00 +8°C° 0.1 mm 6 m/S 752 mmHg 80%
    18:00 +7°C° 0.1 mm 6 m/S 753 mmHg 82%
    19:00 +7°C° 0 mm 6 m/S 753 mmHg 83%
    20:00 +7°C° 0 mm 5 m/S 753 mmHg 84%
    21:00 +6°C° 0 mm 5 m/S 754 mmHg 86%
    22:00 +6°C° 0 mm 5 m/S 754 mmHg 87%
    23:00 +6°C° 0 mm 5 m/S 754 mmHg 89%

    23 Dezember, Sonntag

    Zeit Temperatur Niederschläge Wind Luftdruck Luftfeuchtigkeit
    00:00 +6°C° 0 mm 5 m/S 754 mmHg 90%
    01:00 +6°C° 0 mm 4 m/S 755 mmHg 91%
    02:00 +6°C° 0 mm 4 m/S 755 mmHg 92%
    03:00 +6°C° 0 mm 4 m/S 755 mmHg 92%
    04:00 +7°C° 0 mm 3 m/S 755 mmHg 93%
    05:00 +5°C° 0 mm 3 m/S 755 mmHg 93%
    06:00 +5°C° 0 mm 3 m/S 755 mmHg 93%
    07:00 +5°C° 0 mm 3 m/S 755 mmHg 93%
    08:00 +6°C° 0 mm 2 m/S 756 mmHg 93%
    09:00 +7°C° 0 mm 2 m/S 756 mmHg 93%
    10:00 +7°C° 0 mm 2 m/S 756 mmHg 91%
    11:00 +8°C° 0 mm 2 m/S 756 mmHg 88%
    12:00 +8°C° 0 mm 2 m/S 756 mmHg 85%
    13:00 +8°C° 0 mm 2 m/S 755 mmHg 87%
    14:00 +9°C° 0 mm 1 m/S 755 mmHg 89%
    15:00 +9°C° 0 mm 1 m/S 755 mmHg 90%
    16:00 +8°C° 0.3 mm 1 m/S 755 mmHg 92%
    17:00 +8°C° 0.3 mm 1 m/S 755 mmHg 93%
    18:00 +8°C° 0.3 mm 1 m/S 755 mmHg 94%
    19:00 +8°C° 0.7 mm 1 m/S 755 mmHg 94%
    20:00 +8°C° 0.7 mm 1 m/S 755 mmHg 94%
    21:00 +8°C° 0.7 mm 1 m/S 755 mmHg 94%
    22:00 +8°C° 0.4 mm 1 m/S 755 mmHg 94%
    23:00 +8°C° 0.4 mm 1 m/S 755 mmHg 94%

    24 Dezember, Montag

    Zeit Temperatur Niederschläge Wind Luftdruck Luftfeuchtigkeit
    00:00 +8°C° 0.4 mm 1 m/S 755 mmHg 94%
    01:00 +8°C° 0.7 mm 1 m/S 755 mmHg 94%
    02:00 +6°C° 0.7 mm 2 m/S 755 mmHg 94%
    03:00 +6°C° 0.7 mm 2 m/S 755 mmHg 94%
    04:00 +6°C° 0.2 mm 2 m/S 756 mmHg 93%
    05:00 +6°C° 0.2 mm 2 m/S 756 mmHg 92%
    06:00 +6°C° 0.2 mm 2 m/S 756 mmHg 91%
    07:00 +6°C° 0.1 mm 2 m/S 756 mmHg 91%
    08:00 +6°C° 0.1 mm 2 m/S 756 mmHg 90%
    09:00 +6°C° 0.1 mm 2 m/S 757 mmHg 89%
    10:00 +7°C° 0 mm 2 m/S 757 mmHg 86%
    11:00 +7°C° 0 mm 2 m/S 757 mmHg 82%
    12:00 +8°C° 0 mm 2 m/S 757 mmHg 79%
    13:00 +8°C° 0 mm 2 m/S 757 mmHg 81%
    14:00 +7°C° 0 mm 2 m/S 757 mmHg 82%
    15:00 +7°C° 0 mm 2 m/S 757 mmHg 84%
    16:00 +7°C° 0 mm 2 m/S 757 mmHg 85%
    17:00 +6°C° 0 mm 2 m/S 757 mmHg 87%
    18:00 +6°C° 0 mm 2 m/S 757 mmHg 89%
    19:00 +5°C° 0 mm 2 m/S 757 mmHg 90%
    20:00 +5°C° 0 mm 2 m/S 757 mmHg 91%
    21:00 +3°C° 0 mm 3 m/S 757 mmHg 93%
    22:00 +3°C° 0 mm 3 m/S 757 mmHg 93%
    23:00 +3°C° 0 mm 3 m/S 756 mmHg 93%
    Mehr zeigen